Satellite: RESURS Catalog number: 25394 Epoch time: 09153.68746039 Element set: 227 Inclination: 098.3410 deg RA of node: 186.7725 deg Eccentricity: 0.0000524 Arg of perigee: 277.6463 deg Mean anomaly: 082.4656 deg Mean motion: 14.24183647 rev/day Decay rate: -1.1e-07 rev/day^2 Epoch rev: 56633 Checksum: 309
Satellite: FENGYUN1 Catalog number: 25730 Epoch time: 09154.92188398 Element set: 0774 Inclination: 098.7560 deg RA of node: 125.4861 deg Eccentricity: 0.0019763 Arg of perigee: 259.9178 deg Mean anomaly: 099.9764 deg Mean motion: 14.07928841 rev/day Decay rate: -8.51e-06 rev/day^2 Epoch rev: 51845 Checksum: 367
Satellite: OKEAN-0 Catalog number: 25860 Epoch time: 09154.52294934 Element set: 0694 Inclination: 097.7843 deg RA of node: 136.2472 deg Eccentricity: 0.0000840 Arg of perigee: 112.6108 deg Mean anomaly: 247.5190 deg Mean motion: 14.73575115 rev/day Decay rate: 2.2e-07 rev/day^2 Epoch rev: 53113 Checksum: 286
Satellite: NOAA-16 Catalog number: 26536 Epoch time: 09154.97547728 Element set: 0427 Inclination: 099.1770 deg RA of node: 158.3233 deg Eccentricity: 0.0010030 Arg of perigee: 323.4612 deg Mean anomaly: 036.5858 deg Mean motion: 14.12521435 rev/day Decay rate: 1.73e-06 rev/day^2 Epoch rev: 44843 Checksum: 300
Satellite: NOAA-17 Catalog number: 27453 Epoch time: 09154.65091127 Element set: 0436 Inclination: 098.4857 deg RA of node: 214.1867 deg Eccentricity: 0.0012069 Arg of perigee: 158.5951 deg Mean anomaly: 201.5756 deg Mean motion: 14.24066762 rev/day Decay rate: -5.7e-07 rev/day^2 Epoch rev: 36082 Checksum: 321
Satellite: NOAA-18 Catalog number: 28654 Epoch time: 09154.64742268 Element set: 0924 Inclination: 098.9065 deg RA of node: 097.9911 deg Eccentricity: 0.0015211 Arg of perigee: 044.3020 deg Mean anomaly: 315.9345 deg Mean motion: 14.11260686 rev/day Decay rate: -1.99e-06 rev/day^2 Epoch rev: 20804 Checksum: 312
Satellite: NOAA-19 Catalog number: 33591 Epoch time: 09154.69540111 Element set: 0126 Inclination: 098.7452 deg RA of node: 100.8068 deg Eccentricity: 0.0013128 Arg of perigee: 283.2472 deg Mean anomaly: 076.7226 deg Mean motion: 14.10962206 rev/day Decay rate: 2.95e-06 rev/day^2 Epoch rev: 01653 Checksum: 289
/EX SB KEPS @ AMSAT $ORB09155.M Orbital Elements 09155.MISC
HR AMSAT ORBITAL ELEMENTS FOR MANNED AND MISCELLANEOUS SATELLITES FROM WA5QGD FORT WORTH,TX June 4, 2009 Send Subscribe/unsubscribe to KEPS at http://www.amsat.org/mailman/listinfo/keps BID: ORB09155.M TO ALL RADIO AMATEURS BT
Satellite: HUBBLE Catalog number: 20580 Epoch time: 09154.14808949 Element set: 0403 Inclination: 028.4700 deg RA of node: 193.9309 deg Eccentricity: 0.0003605 Arg of perigee: 133.1182 deg Mean anomaly: 226.9657 deg Mean motion: 15.00806014 rev/day Decay rate: 2.54e-06 rev/day^2 Epoch rev: 84774 Checksum: 284
Satellite: ISS Catalog number: 25544 Epoch time: 09154.91441992 Element set: 0971 Inclination: 051.6417 deg RA of node: 015.0105 deg Eccentricity: 0.0009514 Arg of perigee: 076.7415 deg Mean anomaly: 023.9527 deg Mean motion: 15.73350643 rev/day Decay rate: 1.5273e-04 rev/day^2 Epoch rev: 60386 Checksum: 293
Satellite: CO-58 Catalog number: 28895 Epoch time: 09154.90342595 Element set: 0321 Inclination: 098.0634 deg RA of node: 045.8914 deg Eccentricity: 0.0018597 Arg of perigee: 032.9991 deg Mean anomaly: 327.2373 deg Mean motion: 14.59771502 rev/day Decay rate: 4.0e-08 rev/day^2 Epoch rev: 19179 Checksum: 342
Satellite: FALCON Catalog number: 30776 Epoch time: 09154.48350213 Element set: 0589 Inclination: 035.4328 deg RA of node: 182.5531 deg Eccentricity: 0.0000563 Arg of perigee: 209.2693 deg Mean anomaly: 150.7991 deg Mean motion: 15.03248335 rev/day Decay rate: 1.66e-06 rev/day^2 Epoch rev: 12303 Checksum: 282
Satellite: MAST Catalog number: 31126 Epoch time: 09154.88598693 Element set: 0611 Inclination: 097.9927 deg RA of node: 210.3011 deg Eccentricity: 0.0093728 Arg of perigee: 321.8125 deg Mean anomaly: 037.6438 deg Mean motion: 14.53497927 rev/day Decay rate: -1.1e-07 rev/day^2 Epoch rev: 11310 Checksum: 299
Satellite: CAPE1 Catalog number: 31130 Epoch time: 09154.63605150 Element set: 0617 Inclination: 097.9927 deg RA of node: 208.2769 deg Eccentricity: 0.0101678 Arg of perigee: 328.0461 deg Mean anomaly: 031.4581 deg Mean motion: 14.52059977 rev/day Decay rate: 1.0e-08 rev/day^2 Epoch rev: 11272 Checksum: 288
Satellite: COMPASS Catalog number: 32787 Epoch time: 09155.20267109 Element set: 373 Inclination: 097.9422 deg RA of node: 219.1358 deg Eccentricity: 0.0017086 Arg of perigee: 075.5641 deg Mean anomaly: 284.7463 deg Mean motion: 14.81606827 rev/day Decay rate: 1.74e-06 rev/day^2 Epoch rev: 5952 Checksum: 318
Satellite: AAUSAT2 Catalog number: 32788 Epoch time: 09154.63138611 Element set: 0375 Inclination: 097.9416 deg RA of node: 218.6245 deg Eccentricity: 0.0016811 Arg of perigee: 077.2912 deg Mean anomaly: 283.0183 deg Mean motion: 14.81731005 rev/day Decay rate: 3.90e-06 rev/day^2 Epoch rev: 05944 Checksum: 300
Satellite: DO-64 Catalog number: 32789 Epoch time: 09153.70747479 Element set: 0384 Inclination: 097.9481 deg RA of node: 217.8620 deg Eccentricity: 0.0016966 Arg of perigee: 079.2494 deg Mean anomaly: 281.0612 deg Mean motion: 14.81710757 rev/day Decay rate: 2.84e-06 rev/day^2 Epoch rev: 05930 Checksum: 346
Satellite: CO-66 Catalog number: 32791 Epoch time: 09154.36595056 Element set: 0372 Inclination: 097.9459 deg RA of node: 218.3401 deg Eccentricity: 0.0017360 Arg of perigee: 075.1722 deg Mean anomaly: 285.1405 deg Mean motion: 14.81437747 rev/day Decay rate: 2.61e-06 rev/day^2 Epoch rev: 05936 Checksum: 320
Satellite: RS-30 Catalog number: 32953 Epoch time: 09154.74798581 Element set: 320 Inclination: 082.5014 deg RA of node: 264.9669 deg Eccentricity: 0.0018741 Arg of perigee: 204.5807 deg Mean anomaly: 155.4384 deg Mean motion: 12.43001397 rev/day Decay rate: 1.0e-07 rev/day^2 Epoch rev: 4672 Checksum: 298
Satellite: TACSAT-3 Catalog number: 35001 Epoch time: 09155.36137863 Element set: 18 Inclination: 040.4571 deg RA of node: 317.3476 deg Eccentricity: 0.0024324 Arg of perigee: 063.2103 deg Mean anomaly: 297.1199 deg Mean motion: 15.38783122 rev/day Decay rate: 1.911e-05 rev/day^2 Epoch rev: 237 Checksum: 271
Satellite: PHARMSAT Catalog number: 35002 Epoch time: 09153.86167682 Element set: 0023 Inclination: 040.4705 deg RA of node: 326.2242 deg Eccentricity: 0.0027074 Arg of perigee: 056.5765 deg Mean anomaly: 303.7632 deg Mean motion: 15.39553607 rev/day Decay rate: 1.681e-05 rev/day^2 Epoch rev: 00213 Checksum: 270
Satellite: HAWKSAT1 Catalog number: 35003 Epoch time: 09153.85923822 Element set: 18 Inclination: 040.4717 deg RA of node: 326.2150 deg Eccentricity: 0.0026816 Arg of perigee: 063.7691 deg Mean anomaly: 296.5880 deg Mean motion: 15.39829972 rev/day Decay rate: 2.609e-05 rev/day^2 Epoch rev: 214 Checksum: 300
Satellite: CP6 Catalog number: 35004 Epoch time: 09153.85831797 Element set: 0018 Inclination: 040.4631 deg RA of node: 326.1835 deg Eccentricity: 0.0028478 Arg of perigee: 058.7032 deg Mean anomaly: 301.6568 deg Mean motion: 15.39948102 rev/day Decay rate: 3.168e-05 rev/day^2 Epoch rev: 00213 Checksum: 296
Satellite: AEROCUB3 Catalog number: 35005 Epoch time: 09155.22208032 Element set: 13 Inclination: 040.4765 deg RA of node: 318.0744 deg Eccentricity: 0.0026648 Arg of perigee: 069.8217 deg Mean anomaly: 290.5457 deg Mean motion: 15.39768439 rev/day Decay rate: 3.336e-05 rev/day^2 Epoch rev: 234 Checksum: 290
/EX
participants (1)
-
Ray Hoad